Weather History for Philadelphia Wings Airport, PA

Change the Weather History Date:

Friday, February 15, 2013

  Actual Average (KPNE) Record (KPNE)
Temperature  
Mean Temperature 44 °F -  
Max Temperature 57 °F 41 °F 57 °F (2005)
Min Temperature 32 °F 25 °F 15 °F (2007)
Degree Days  
Heating Degree Days 20    
Moisture  
Dew Point 32 °F    
Average Humidity 68    
Maximum Humidity 100    
Minimum Humidity 38    
Precipitation  
Precipitation 0.03 in - - ()
Sea Level Pressure  
Sea Level Pressure 29.96 in    
Wind  
Wind Speed 4 mph (WSW)    
Max Wind Speed 12 mph    
Max Gust Speed 18 mph    
Visibility 9 miles    
Events      
Averages and records for this station are not official NWS values.
T = Trace of Precipitation, MM = Missing Value Source: NWS Daily Summary

Daily Weather History Graph

Daily Weather History Graph

Search for Another Location

Airport:

Trip Planner

Search our weather history database for the weather conditions in past years. The results will help you decide how hot, cold, wet, or windy it might be!

Date:

Astronomy

Feb. 15, 2013 Rise Set
Actual Time 6:53 AM EST 5:37 PM EST
Civil Twilight 6:26 AM EST 6:04 PM EST
Nautical Twilight 5:54 AM EST 6:36 PM EST
Astronomical Twilight 5:22 AM EST 7:08 PM EST
Moon 9:28 AM EST (2/15) 11:36 PM EST (2/15)
Length of Visible Light 11h 38m
Length of Day
10h 43m
Waxing Crescent, 30% of the Moon is Illuminated
Feb 15
Waxing Crescent
Feb 17
First Quarter
Feb 25
Full
Mar 4
Last Quarter
Mar 11
New

Hourly Weather History & Observations

Time (EST) Temp. Windchill Dew Point Humidity Pressure Visibility Wind Dir Wind Speed Gust Speed Precip Events Conditions
12:15 AM 35.6 °F 31.7 °F 32.0 °F 87% 30.00 in 7.0 mi South 4.6 mph - N/A   Clear
12:35 AM 35.6 °F 31.7 °F 32.0 °F 87% 30.00 in 7.0 mi South 4.6 mph - N/A   Clear
12:55 AM 35.6 °F 32.8 °F 32.0 °F 87% 30.01 in 7.0 mi South 3.5 mph - N/A   Clear
1:15 AM 35.6 °F - 32.0 °F 87% 30.00 in 7.0 mi Calm Calm - N/A   Mostly Cloudy
1:35 AM 32.0 °F - 32.0 °F 100% 29.99 in 5.0 mi Calm Calm - N/A   Scattered Clouds
1:55 AM 32.0 °F - 32.0 °F 100% 29.99 in 5.0 mi Calm Calm - N/A   Clear
2:15 AM 35.6 °F 30.7 °F 32.0 °F 87% 29.99 in 10.0 mi SSW 5.8 mph - N/A   Scattered Clouds
2:35 AM 37.4 °F 32.1 °F 32.0 °F 81% 29.99 in 10.0 mi SSW 6.9 mph - N/A   Scattered Clouds
2:55 AM 35.6 °F 30.7 °F 32.0 °F 87% 29.98 in 10.0 mi South 5.8 mph - N/A   Clear
3:35 AM 35.6 °F 32.8 °F 32.0 °F 87% 29.98 in 10.0 mi South 3.5 mph - N/A   Clear
3:55 AM 35.6 °F 30.7 °F 32.0 °F 87% 29.98 in 10.0 mi SSW 5.8 mph - N/A   Mostly Cloudy
4:15 AM 35.6 °F 28.6 °F 32.0 °F 87% 29.98 in 10.0 mi SW 9.2 mph - N/A   Scattered Clouds
4:35 AM 35.6 °F 31.7 °F 32.0 °F 87% 29.98 in 10.0 mi SSW 4.6 mph - N/A   Clear
4:55 AM 35.6 °F 29.2 °F 32.0 °F 87% 29.98 in 10.0 mi SSW 8.1 mph - N/A   Clear
5:15 AM 35.6 °F 29.9 °F 32.0 °F 87% 29.98 in 10.0 mi SSW 6.9 mph - N/A   Clear
5:35 AM 35.6 °F - 32.0 °F 87% 29.98 in 7.0 mi Calm Calm - N/A   Clear
5:55 AM 35.6 °F 32.8 °F 32.0 °F 87% 29.98 in 7.0 mi WSW 3.5 mph - N/A   Clear
6:15 AM 32.0 °F - 32.0 °F 100% 29.98 in 5.0 mi Calm Calm - N/A   Clear
6:35 AM 32.0 °F - 30.2 °F 93% 29.98 in 5.0 mi Calm Calm - N/A   Clear
6:55 AM 32.0 °F - 30.2 °F 93% 29.99 in 4.0 mi Calm Calm - N/A   Clear
7:15 AM 32.0 °F - 30.2 °F 93% 29.99 in 3.0 mi Calm Calm - N/A   Unknown
7:35 AM 32.0 °F - 32.0 °F 100% 30.00 in 3.0 mi Calm Calm - N/A   Unknown
7:55 AM 35.6 °F 32.8 °F 33.8 °F 93% 30.01 in 5.0 mi WSW 3.5 mph - N/A   Scattered Clouds
8:15 AM 37.4 °F 33.8 °F 33.8 °F 87% 30.01 in 7.0 mi SW 4.6 mph - N/A   Scattered Clouds
8:35 AM 41.0 °F 38.0 °F 33.8 °F 76% 30.01 in 7.0 mi WSW 4.6 mph - N/A   Clear
8:55 AM 41.0 °F 37.1 °F 33.8 °F 76% 30.01 in 7.0 mi WSW 5.8 mph - N/A   Clear
9:15 AM 42.8 °F 40.1 °F 33.8 °F 70% 30.01 in 7.0 mi West 4.6 mph - N/A   Clear
9:35 AM 44.6 °F 40.7 °F 33.8 °F 66% 30.01 in 10.0 mi WSW 6.9 mph - N/A   Clear
9:55 AM 44.6 °F 40.7 °F 33.8 °F 66% 30.01 in 10.0 mi SW 6.9 mph - N/A   Clear
10:15 AM 46.4 °F 45.2 °F 33.8 °F 62% 30.01 in 10.0 mi SW 3.5 mph - N/A   Clear
10:35 AM 48.2 °F - 33.8 °F 58% 30.01 in 10.0 mi SW 4.6 mph - N/A   Clear
10:55 AM 50.0 °F - 33.8 °F 54% 30.01 in 10.0 mi SW 6.9 mph - N/A   Clear
11:15 AM 51.8 °F - 33.8 °F 50% 30.00 in 10.0 mi WSW 4.6 mph - N/A   Clear
11:35 AM 53.6 °F - 33.8 °F 47% 29.99 in 10.0 mi SSW 6.9 mph - N/A   Clear
11:55 AM 53.6 °F - 33.8 °F 47% 29.98 in 10.0 mi SW 4.6 mph - N/A   Clear
12:15 PM 55.4 °F - 33.8 °F 44% 29.97 in 10.0 mi WSW 4.6 mph - N/A   Clear
12:55 PM 55.4 °F - 32.0 °F 41% 29.94 in 10.0 mi WSW 9.2 mph - N/A   Clear
1:15 PM 55.4 °F - 33.8 °F 44% 29.93 in 10.0 mi WSW 8.1 mph 16.1 mph N/A   Clear
1:35 PM 57.2 °F - 32.0 °F 38% 29.93 in 10.0 mi SW 5.8 mph 16.1 mph N/A   Clear
1:55 PM 57.2 °F - 32.0 °F 38% 29.92 in 10.0 mi SW 9.2 mph - N/A   Clear
2:15 PM 55.4 °F - 32.0 °F 41% 29.92 in 10.0 mi SSW 8.1 mph 18.4 mph N/A   Clear
2:35 PM 57.2 °F - 32.0 °F 38% 29.91 in 10.0 mi SW 11.5 mph - N/A   Scattered Clouds
2:55 PM 55.4 °F - 32.0 °F 41% 29.91 in 10.0 mi WSW 8.1 mph - N/A   Scattered Clouds
3:15 PM 55.4 °F - 32.0 °F 41% 29.91 in 10.0 mi WSW 9.2 mph - N/A   Mostly Cloudy
3:35 PM 55.4 °F - 32.0 °F 41% 29.91 in 10.0 mi West 6.9 mph - N/A   Scattered Clouds
3:55 PM 53.6 °F - 32.0 °F 44% 29.91 in 10.0 mi West 4.6 mph - N/A   Scattered Clouds
4:15 PM 53.6 °F - 32.0 °F 44% 29.91 in 10.0 mi West 4.6 mph - N/A   Scattered Clouds
4:35 PM 53.6 °F - 32.0 °F 44% 29.91 in 10.0 mi West 6.9 mph - N/A   Scattered Clouds
4:55 PM 53.6 °F - 32.0 °F 44% 29.91 in 10.0 mi West 4.6 mph - N/A   Scattered Clouds
5:15 PM 53.6 °F - 32.0 °F 44% 29.91 in 10.0 mi West 3.5 mph - N/A   Scattered Clouds
5:35 PM 51.8 °F - 32.0 °F 47% 29.91 in 10.0 mi Calm Calm - N/A   Clear
5:55 PM 46.4 °F - 32.0 °F 57% 29.91 in 10.0 mi Calm Calm - N/A   Clear
6:15 PM 44.6 °F - 32.0 °F 61% 29.91 in 10.0 mi Calm Calm - N/A   Clear
6:35 PM 46.4 °F 45.2 °F 32.0 °F 57% 29.91 in 10.0 mi NNW 3.5 mph - N/A   Clear
6:55 PM 46.4 °F 45.2 °F 32.0 °F 57% 29.92 in 10.0 mi NNW 3.5 mph - N/A   Scattered Clouds
7:15 PM 46.4 °F 45.2 °F 30.2 °F 53% 29.91 in 10.0 mi NNW 3.5 mph - N/A   Overcast
7:35 PM 46.4 °F 44.3 °F 30.2 °F 53% 29.92 in 10.0 mi NW 4.6 mph - N/A   Overcast
7:55 PM 46.4 °F 45.2 °F 30.2 °F 53% 29.93 in 10.0 mi NW 3.5 mph - N/A   Overcast
8:15 PM 46.4 °F 45.2 °F 30.2 °F 53% 29.93 in 10.0 mi NNW 3.5 mph - N/A   Overcast
8:35 PM 46.4 °F 45.2 °F 30.2 °F 53% 29.93 in 10.0 mi NNW 3.5 mph - N/A   Overcast
8:55 PM 46.4 °F 42.9 °F 28.4 °F 50% 29.94 in 10.0 mi NW 6.9 mph - N/A   Overcast
9:15 PM 44.6 °F 41.4 °F 30.2 °F 57% 29.95 in 10.0 mi NW 5.8 mph - N/A   Overcast
9:35 PM 44.6 °F 41.4 °F 32.0 °F 61% 29.96 in 10.0 mi NW 5.8 mph - N/A   Overcast
9:55 PM 42.8 °F 37.5 °F 33.8 °F 70% 29.97 in 10.0 mi WNW 9.2 mph 16.1 mph N/A   Mostly Cloudy
10:15 PM 41.0 °F 35.2 °F 33.8 °F 76% 29.98 in 10.0 mi NNW 9.2 mph - N/A   Overcast
10:35 PM 39.2 °F 34.2 °F 33.8 °F 81% 29.98 in 10.0 mi NW 6.9 mph - N/A   Overcast
10:55 PM 37.4 °F 33.8 °F 35.6 °F 93% 29.98 in 7.0 mi NNW 4.6 mph - N/A   Overcast
11:15 PM 37.4 °F 34.9 °F 35.6 °F 93% 29.99 in 5.0 mi NW 3.5 mph - 0.01 in   Overcast
11:35 PM 35.6 °F 32.8 °F 33.8 °F 93% 29.98 in 5.0 mi NW 3.5 mph - 0.02 in   Overcast
11:55 PM 35.6 °F 32.8 °F 33.8 °F 93% 29.98 in 5.0 mi NW 3.5 mph - 0.03 in   Overcast